SL-12 R/B(2)            
1 28704U 05023H   19260.86139137 -.00000361  00000-0  00000-0 0  9998
2 28704  10.3094  35.6301 0015501 279.1153  99.7426  1.00813688 52366
EXPRESS-AM3             
1 28707U 05023A   19260.93219715 -.00000326  00000-0  00000-0 0  9991
2 28707   1.1926  92.9086 0001130  27.2527 315.0216  1.00271379 52127